Regional Weather Roundup
Issued by NWS

Home | Current Version | Previous Version | Graphics & Text | Print | Product List | Glossary On
Versions: 1 2 3 4 5 6 7 8 9 10 11 12 13 14 15 16 17 18 19 20 21 22 23 24 25 26 27 28 29 30 31 32 33 34 35 36 37 38 39 40 41 42 43 44 45 46 47 48 49 50
000
ASUS43 KMKX 171521
RWRWI

WISCONSIN REGIONAL WEATHER ROUNDUP
NATIONAL WEATHER SERVICE MILWAUKEE/SULLIVAN WI
900 AM CST WED DEC 17 2014

NOTE: "FAIR" INDICATES FEW OR NO CLOUDS BELOW 12,000 FEET WITH NO
SIGNIFICANT WEATHER AND/OR OBSTRUCTIONS TO VISIBILITY.

WIZ001-002-006>008-014>016-023>028-171600-
NORTHWEST WISCONSIN

CITY           SKY/WX    TMP DP  RH WIND       PRES   REMARKS
SUPERIOR ARPT  PTCLDY    14   8  78 N8        30.29R WCI   3
ASHLAND        LGT SNOW  16  13  88 W6        30.24R FOG     WCI   7
HAYWARD        LGT SNOW  12   8  84 VRB6      30.23S FOG     WCI   3
SIREN          PTCLDY    12   9  85 NW7       30.28S WCI   2
CUMBERLAND     CLOUDY    14   9  79 NW10      30.24R WCI   1
RICE LAKE      FLURRIES  16  10  78 NW9       30.27R WCI   4
CHETEK         LGT SNOW  16  10  79 W6        30.25R WCI   7
LADYSMITH      LGT SNOW  16  11  81 N8        30.24R WCI   5
EAU CLAIRE     CLOUDY    17  12  80 W8        30.26R WCI   7
MENOMONIE      FLURRIES  16  12  84 W8        30.27S WCI   5
NEW RICHMOND   LGT SNOW  12  10  92 W9        30.29R WCI   0
OSCEOLA        CLOUDY    12   9  89 W6        30.33R WCI   2
$$

WIZ003>005-009-010-017-018-171600-
NORTH CENTRAL WISCONSIN

CITY           SKY/WX    TMP DP  RH WIND       PRES   REMARKS
MANITOWISH WTR LGT SNOW  15  12  88 W7        30.13R WCI   5
ARBOR VITAE    LGT SNOW  17  13  84 NW8       30.13R WCI   6
WOODRUFF       LGT SNOW  17  13  84 NW8       30.13R WCI   6
RHINELANDER    FLURRIES  15  10  80 W9        30.13R WCI   3
EAGLE RIVER    LGT SNOW  17  14  90 W9        30.11R WCI   5
LAND O LAKES   LGT SNOW  18  15  87 NW6       30.11R WCI  10
PHILLIPS       FLURRIES  13   9  84 W5        30.17R WCI   5
TOMAHAWK       PTSUNNY   15  10  80 W6        30.16S WCI   7
MEDFORD        FLURRIES  16  10  78 NW12      30.18R WCI   2
MERRILL        LGT SNOW  17  12  81 N6        30.18R WCI   9
$$

WIZ029-030-035-036-043>047-171600-
CENTRAL WISCONSIN

CITY           SKY/WX    TMP DP  RH WIND       PRES   REMARKS
WAUSAU         FLURRIES  19  11  70 W14       30.17R WCI   6
MOSINEE        FLURRIES  19  16  86 NW13      30.19R WCI   7
MARSHFIELD     LGT SNOW  20  14  77 NW12      30.19R WCI   8
STEVENS POINT  FLURRIES  19  12  74 NW7       30.19R WCI  10
WAUPACA        FLURRIES  24  15  69 NW5       30.21R WCI  18
WAUTOMA        CLOUDY    23  16  75 W13       30.21R WCI  11
WISC RAPIDS    CLOUDY    21  13  71 W12       30.22R WCI   9
CAMP DOUGLAS   FLURRIES  19  18  93 NW13      30.24R WCI   7
$$

WIZ011>013-019>022-031-037>040-048>050-171600-
NORTHEAST WISCONSIN

CITY           SKY/WX    TMP DP  RH WIND       PRES   REMARKS
ANTIGO         LGT SNOW  16  11  83 NW15G21   30.15R WCI   1
SHAWANO        PTSUNNY   23  15  70 NW10      30.18R WCI  12
OCONTO         PTSUNNY   22  16  76 W14       30.15R WCI  10
STURGEON BAY   CLOUDY    25  16  68 W21       30.13S WCI  10
GREEN BAY      FLURRIES  24  15  68 W17       30.17R WCI  11
MANITOWOC      FLURRIES  26  18  71 NW16      30.17R WCI  14
APPLETON       PTSUNNY   21  12  68 NW15G21   30.19R WCI   8
CLINTONVILLE   CLOUDY    21  12  68 NW16      30.19R WCI   7
OSHKOSH        FLURRIES  24  16  71 NW17      30.18R WCI  11
$$

WIZ032>034-041-042-053>061-171600-
SOUTHWEST WISCONSIN

CITY           SKY/WX    TMP DP  RH WIND       PRES   REMARKS
LA CROSSE      LGT SNOW  21  13  71 NW13      30.29R WCI   9
SPARTA         FLURRIES  20  14  78 NW10      30.27R WCI   9
VIROQUA        CLOUDY    18  15  88 W9        30.23R WCI   7
BOSCOBEL       CLOUDY    22  14  71 NW8       30.28R WCI  12
PRAIRIE DU CHI CLOUDY    19  13  75 W13       30.30R WCI   7
PLATTEVILLE    CLOUDY    21  17  84 W10G18    30.26R WCI  10
$$

WIZ056-057-062-063-064-067-068-171600-
SOUTH CENTRAL WISCONSIN

CITY           SKY/WX    TMP DP  RH WIND       PRES   REMARKS
REEDSBURG      CLOUDY    21  15  75 NW13      30.24R WCI   9
BARABOO/DELLS  CLOUDY    22  16  77 NW5       30.22R WCI  15
LONE ROCK      CLOUDY    26  15  63 W12       30.26R WCI  16
MINERAL POINT  CLOUDY    23  18  80 W10       30.23R WCI  12
MADISON        CLOUDY    23  14  68 NW12      30.22R WCI  12
MIDDLETON      CLOUDY    25  17  72 NW10      30.23R WCI  14
WATERTOWN      CLOUDY    23  17  79 W9        30.21R WCI  13
MONROE         CLOUDY    23  18  80 NW15      30.22R WCI  10
JANESVILLE     CLOUDY    27  18  69 NW13G18   30.22R WCI  16
$$

WIZ051-052-058>065-066-070>072-171600-
SOUTHEAST WISCONSIN

CITY           SKY/WX    TMP DP  RH WIND       PRES   REMARKS
MILWAUKEE      CLOUDY    26  16  65 NW14      30.19S WCI  14
WAUKESHA       CLOUDY    21  18  86 NW18      30.20S WCI   6
MILWAUKEE/TIMM CLOUDY    25  16  68 W16G22    30.20R WCI  12
RACINE         CLOUDY    26  16  65 W10       30.21S WCI  16
BURLINGTON     CLOUDY    24  17  74 NW16      30.21R WCI  11
KENOSHA        CLOUDY    26  17  68 NW14      30.20R WCI  14
FOND DU LAC    CLOUDY    24  15  68 NW13      30.19R WCI  12
SHEBOYGAN      FLURRIES  24  18  77 NW10      30.17R WCI  14
WEST BEND      FLURRIES  25  18  74 W16       30.18R WCI  12
JUNEAU         CLOUDY    22  16  77 W10       30.21R WCI  12
$$

LSZ147-162-171600-
LAKE SUPERIOR

STATION/POSITION TIME  TEMP    WIND        PRES    WAVE
                       AIR SEA DIR/SP/G            HT/PER
                 (UTC) (F)     (DEG/KT/KT) (MB)    (FT/S)
DEVILS ISLAND    1500   22      10/  9/ 12 1024.9R
PORT WING        1400   19     340/ 11/ 15 1024.4
SAXON HARBOR     1400   19     240/  4/  9 1023.0R
$$

LMZ867-665-643>646-171600-
LAKE MICHIGAN

STATION/POSITION TIME  TEMP    WIND        PRES    WAVE
                       AIR SEA DIR/SP/G            HT/PER
                 (UTC) (F)     (DEG/KT/KT) (MB)    (FT/S)
CHAMBERS ISLAND  1400   25     260/  6/ 13 1019.3R
NORTHPORT PIER   1400   26     300/ 11/ 23 1018.3S
SISTER BAY       1413          320/ 24/ 28   N/A
ALGOMA LAKESHORE 1414          320/ 10/ 16   N/A
KEWAUNEE LAKESHO 1500   25     300/ 12/ 21 1019.7R
SHEBOYGAN LAKESH 1500   25 35  290/ 11/ 15 1022.8R
PORT WASHINGTON  1400   26     310/  9/ 15 1022.7R
MILWAUKEE LAKESH 1500   26     300/  9/ 13   N/A
KENOSHA   LAKESH 1500   26     310/  9/ 13 1022.7R
$$

TC  - TEMPERATURE IN CELSIUS
VSB - VISIBILITY IN STATUTE MILES
WCI - WIND CHILL INDEX
HX  - HEAT INDEX




USA.gov is the U.S. government's official web portal to all federal, state and local government web resources and services.